Theta_e
305 306 306 306 304 304 305 304 306 304 306 307 309 309 307 305 308 308 308 308 307 307 306 305 304 304 302 303 303 305 306 305 308 310 308 310 311 316 316 316 317 317 319 316
307 307 306 305 305 302 302 305 305 304 306 313 308 306 306 307 308 307 306 307 307 307 306 307 303 305 303 302 303 304 304 307 310 311 309 309 314 313 313 315 317 316 315 317
304 304 303 303 302 300 301 306 306 306 307 305 307 306 306 306 306 306 306 307 307 307 307 305 305 305 305 304 304 304 302 306 309 312 313 314 314 314 313 314 315 316 316 316
304 304 304 303 299 299 301 305 307 305 308 305 306 307 306 306 306 305 306 307 307 307 308 307 307 307 306 304 305 304 305 309 308 309 311 311 311 312 313 314 315 316 316 315
306 304 304 303 301 301 303 304 305 303 304 305 306 304 306 306 306 306 307 307 307 307 307 307 307 306 306 307 306 304 306 309 308 310 309 310 312 311 312 314 313 314 315 317
307 306 304 304 303 300 302 301 302 302 303 305 306 304 306 306 306 305 305 306 307 308 306 305 306 305 305 306 306 307 308 308 309 309 310 309 311 312 312 312 312 314 316 313
306 305 304 304 304 302 299 297 298 302 304 304 305 303 305 306 305 306 305 305 306 305 304 305 305 306 306 306 306 306 308 309 310 308 311 311 311 310 311 312 311 311 312 312
305 304 304 304 301 300 299 296 298 300 304 304 301 302 303 303 302 304 305 304 302 303 305 307 308 308 308 309 307 306 307 308 309 309 307 310 311 311 310 311 311 310 312 311
305 305 304 302 302 300 300 298 297 299 301 300 299 301 302 303 303 303 304 302 302 304 306 307 310 310 308 310 308 306 307 307 308 310 311 313 312 310 310 310 311 309 311 310
303 305 305 304 303 300 301 299 297 299 300 296 297 300 300 301 303 304 303 303 304 305 307 308 309 308 307 309 308 309 308 309 310 310 310 310 309 309 309 314 313 310 310 310
301 301 303 304 304 302 301 300 296 298 299 297 296 297 298 298 299 303 303 303 304 305 307 308 308 307 306 307 307 308 308 307 308 309 310 308 309 309 312 309 309 309 309 308
299 301 302 304 304 303 302 300 297 296 299 298 296 296 295 296 296 296 301 304 305 306 307 307 306 306 304 305 306 306 306 306 308 307 309 308 309 309 309 308 308 309 308 308
299 300 301 303 305 304 302 298 296 297 298 297 295 296 295 295 295 296 299 302 301 303 300 303 305 305 303 304 304 306 305 304 305 306 306 308 308 308 308 308 308 307 308 308
298 300 301 302 301 302 302 297 297 296 298 298 297 294 295 295 295 295 297 297 299 299 300 303 305 306 303 303 303 304 304 303 305 305 306 306 307 307 307 307 307 307 307 307
297 297 300 301 303 303 302 298 296 295 297 299 298 295 295 295 295 296 296 297 298 300 301 302 304 304 303 303 302 302 302 304 304 305 304 305 306 305 306 306 306 306 306 305
297 297 301 304 303 303 298 298 298 296 295 299 301 295 295 294 295 296 297 297 297 298 301 301 302 300 302 303 304 303 302 302 303 304 304 305 305 304 305 306 305 305 304 304
297 298 301 304 304 301 298 300 298 296 295 298 300 298 296 295 296 296 295 295 296 297 299 300 300 300 300 302 303 303 302 301 303 303 303 306 305 304 304 304 303 304 303 302
297 298 300 303 302 299 298 299 298 296 297 296 297 299 295 295 296 297 296 296 296 297 298 297 297 299 300 302 302 300 301 301 301 302 303 304 303 302 302 303 302 301 301 300
297 299 300 301 300 298 298 297 297 295 297 299 297 298 298 295 297 297 296 296 297 297 297 297 297 299 301 300 300 300 299 300 301 301 302 302 302 301 301 301 301 301 299 298
298 300 300 298 297 298 296 296 297 296 296 297 298 297 296 295 297 298 299 296 298 295 299 296 297 299 299 298 299 298 298 299 300 301 300 301 301 300 299 299 298 297 295 293
298 299 298 296 296 296 297 299 299 299 298 297 296 295 294 293 298 300 298 299 296 296 299 296 298 300 298 297 298 298 298 300 301 301 300 300 300 299 297 297 295 293 292 290
298 297 295 295 296 297 299 300 298 300 299 297 296 294 294 293 295 300 297 299 296 295 297 295 297 300 299 298 298 296 298 299 300 299 298 298 298 298 296 294 291 290 290 289
297 296 295 296 297 298 300 300 300 296 297 294 293 293 293 293 294 298 297 298 298 295 297 298 298 299 296 296 296 297 298 298 298 297 297 296 294 294 292 289 289 289 289 289
297 297 298 297 298 298 298 299 297 297 295 295 294 291 293 294 294 296 297 298 296 293 296 297 298 299 295 295 295 297 297 296 294 292 291 289 289 288 289 288 288 288 288 287
297 297 299 299 297 297 297 296 294 293 295 295 292 291 293 294 292 295 296 296 293 295 297 298 297 297 295 293 295 295 293 292 290 288 287 286 287 286 287 287 287 287 286 286
296 296 298 299 298 296 294 293 293 292 295 292 294 292 291 292 292 293 293 292 294 294 295 296 293 294 294 293 294 292 291 289 287 286 286 286 286 285 285 286 285 285 285 285
296 298 297 295 296 297 294 293 293 295 296 294 294 296 294 291 292 293 293 293 297 299 296 292 293 294 294 294 292 289 288 286 286 286 286 286 287 286 285 283 284 284 285 285
Wind_Speed
18 16 16 18 12 19 10 3 1 6 13 1 2 3 3 1 4 1 2 2 2 3 4 1 1 2 4 4 6 6 5 3 5 4 6 4 2 6 6 3 7 4 1 4
26 21 12 6 10 18 11 2 2 6 6 1 3 5 7 5 3 5 2 3 2 3 3 1 1 5 3 2 4 5 5 4 5 4 2 2 6 12 15 2 2 16 3 5
14 16 14 10 15 15 5 1 4 2 2 3 1 7 5 5 3 3 2 2 4 3 0 3 2 2 2 1 4 6 3 4 5 3 4 4 9 16 17 13 4 6 11 11
4 4 5 11 20 13 1 1 2 2 1 0 4 3 2 4 2 1 3 2 2 4 3 4 3 4 2 5 2 4 1 3 4 1 2 7 12 13 15 13 12 7 11 9
4 3 4 12 23 7 4 3 2 3 3 1 3 0 2 2 3 2 2 2 3 4 4 4 5 5 4 3 4 1 1 3 2 3 3 2 10 13 11 11 11 7 10 6
4 8 7 10 15 9 6 4 4 2 1 2 3 2 4 3 1 1 2 6 4 3 3 6 6 5 3 3 1 3 1 3 4 3 5 3 3 7 7 4 11 6 8 7
8 8 8 10 9 12 6 3 2 3 1 3 2 1 1 2 2 3 2 5 5 3 5 7 7 8 7 6 4 5 3 4 2 4 6 3 2 6 1 6 9 10 10 10
7 7 9 9 10 7 10 7 2 2 3 2 3 3 2 4 2 0 1 3 3 5 4 3 4 3 4 7 6 4 2 3 2 1 2 3 3 3 1 3 4 9 8 10
7 8 6 6 9 8 5 9 6 1 2 3 8 2 2 3 4 2 3 2 2 3 2 2 3 2 3 2 2 6 5 6 2 1 1 1 3 4 1 4 1 5 8 9
7 8 8 7 9 8 8 6 4 2 1 2 4 1 2 4 4 1 2 3 3 1 2 2 2 2 1 2 3 1 2 2 2 2 1 2 5 4 1 1 0 4 5 7
10 9 10 9 8 8 7 6 7 7 1 2 2 0 0 3 3 2 2 2 1 3 2 2 2 1 0 2 3 2 2 0 2 1 1 3 5 3 2 4 4 4 3 5
8 8 9 9 7 8 7 4 7 4 3 2 4 5 6 5 2 3 2 2 2 1 2 2 2 3 2 2 3 1 2 4 2 3 3 4 3 5 4 5 6 2 4 3
7 7 7 6 9 8 6 5 6 3 2 2 3 3 6 4 5 4 2 0 5 3 2 1 2 3 2 2 4 2 4 3 2 3 4 7 7 5 5 5 6 6 4 4
7 8 8 10 11 11 8 4 5 4 4 2 2 2 3 7 6 5 5 4 5 4 2 2 2 2 1 3 3 2 2 4 5 4 6 5 7 8 8 5 6 6 5 4
7 8 9 14 16 17 12 9 8 6 2 3 1 3 3 4 5 5 5 4 3 2 2 2 3 1 1 3 2 5 6 7 5 5 9 6 7 10 10 9 7 7 6 4
6 6 7 6 2 13 5 2 3 8 4 2 3 3 3 3 4 5 6 6 2 1 2 3 3 2 0 3 4 7 9 7 7 3 5 4 7 10 8 8 8 6 6 6
5 3 2 6 8 13 3 2 0 2 4 2 3 2 3 5 4 2 1 3 2 2 2 3 2 2 3 3 5 6 7 9 6 7 8 5 7 6 8 7 9 9 9 8
5 4 2 6 12 8 4 8 5 5 1 2 3 2 2 9 3 3 2 3 3 3 3 0 2 1 3 6 12 7 6 8 8 8 3 5 8 8 8 10 10 7 6 6
5 4 4 9 3 4 3 3 4 8 3 2 2 2 2 3 1 1 1 2 3 2 3 4 4 4 7 10 7 9 8 9 8 8 6 7 9 9 8 7 7 6 6 6
9 7 3 1 1 4 6 1 1 2 3 3 3 2 1 3 2 2 2 2 2 2 4 2 4 6 13 11 11 8 11 10 11 10 9 8 8 10 8 7 7 6 6 7
8 5 2 5 10 2 1 2 3 3 3 4 4 5 4 3 3 2 3 2 2 2 3 3 3 4 5 15 21 10 11 12 14 5 7 8 11 11 8 7 8 10 9 7
13 11 8 6 3 2 4 4 3 5 5 4 4 3 3 2 1 2 1 2 2 6 2 1 4 5 5 3 6 9 12 12 12 9 10 9 11 14 11 10 10 11 10 8
13 3 3 3 3 7 7 8 4 4 4 4 3 2 3 2 1 2 2 4 5 2 3 5 5 6 2 3 1 7 9 10 11 9 15 17 16 20 19 14 14 12 11 8
2 5 6 7 6 7 6 6 4 3 3 7 5 2 3 3 3 3 4 4 1 4 4 6 4 6 6 6 5 7 9 10 11 12 14 14 15 15 17 16 14 13 11 7
4 5 7 9 5 3 3 2 3 0 7 8 3 2 2 3 3 4 2 3 6 6 5 5 3 3 7 7 6 8 9 10 10 10 10 13 18 16 15 14 13 12 10 8
3 7 5 2 6 2 1 2 2 2 6 2 2 3 3 5 4 4 9 6 7 5 4 3 1 2 3 4 5 7 8 9 10 14 15 18 17 16 17 14 12 11 10 8
6 5 7 2 2 4 3 3 3 8 7 3 3 6 10 1 3 5 6 6 4 2 2 2 2 4 5 6 7 8 10 10 13 16 17 16 18 19 17 10 11 10 8 5
Wind_Direction
89 73 101 116 89 14 12 23 51 306 340 21 301 63 39 258 89 127 102 329 354 8 120 343 119 258 208 343 314 308 159 302 281 259 132 304 301 347 342 346 357 342 344 17
92 87 91 57 350 353 341 33 321 299 284 36 83 126 101 58 57 53 8 44 339 358 15 316 168 203 171 291 302 2 331 263 313 3 283 319 12 0 3 339 268 24 4 6
87 83 75 44 354 350 328 233 342 332 290 295 26 122 113 112 32 69 12 356 268 283 301 138 291 1 116 146 283 321 258 283 62 29 303 315 7 18 7 18 2 5 23 8
127 76 50 11 359 328 190 304 5 5 279 333 68 23 123 121 118 52 330 209 333 354 320 316 76 350 59 153 257 321 338 309 358 120 110 57 42 22 18 16 18 32 346 12
273 312 322 355 9 60 103 337 345 254 358 286 154 1 140 176 127 325 105 318 348 356 49 11 334 346 27 56 303 195 248 309 268 262 237 193 54 20 15 14 2 11 10 35
313 310 319 345 7 34 35 353 297 258 49 256 273 77 125 167 139 146 353 330 297 23 21 337 331 306 279 247 334 308 228 307 334 285 317 323 40 23 10 4 16 349 18 21
345 339 322 335 356 39 66 11 295 299 96 268 336 125 93 199 100 352 73 332 326 25 291 282 244 249 243 258 218 196 288 281 241 280 305 37 171 125 305 55 27 8 28 15
341 350 354 342 346 19 72 46 53 15 326 313 49 291 195 72 182 210 311 65 355 319 291 300 307 216 229 200 193 246 240 278 290 138 76 170 177 149 244 331 23 15 27 9
318 334 348 344 341 358 328 61 68 348 330 32 331 219 245 224 217 163 146 152 310 306 317 320 294 303 352 314 243 178 239 230 222 305 158 123 125 134 293 297 181 16 21 22
334 307 307 320 330 352 352 310 38 120 345 39 352 32 290 332 323 43 126 168 165 16 297 283 258 320 82 274 296 51 280 292 270 355 3 108 129 129 111 292 234 47 32 39
328 321 310 291 313 328 349 312 323 309 199 140 191 48 63 337 297 305 105 116 237 148 259 280 272 261 351 314 230 219 262 205 211 62 250 260 148 130 239 153 103 131 62 55
322 322 325 280 297 315 328 308 318 356 313 349 206 210 202 175 146 308 306 336 338 343 253 338 315 274 212 282 282 54 268 197 195 181 194 125 158 113 110 144 143 147 109 4
311 310 320 303 275 296 291 299 297 316 250 207 251 200 198 200 185 168 318 111 10 341 83 309 292 288 35 263 240 335 234 130 223 37 158 170 178 148 152 158 136 132 112 108
304 303 283 274 271 278 263 258 296 283 294 279 222 241 218 197 193 186 189 289 301 294 290 256 252 257 57 282 269 231 214 125 210 240 166 166 188 176 162 130 117 120 116 102
300 296 293 292 271 244 242 257 258 251 301 301 310 161 211 210 202 184 199 206 283 271 269 225 234 249 358 249 328 244 181 189 177 219 184 170 188 172 159 153 167 160 149 134
283 297 318 316 158 179 168 295 278 228 213 288 289 136 177 211 193 184 187 213 188 249 258 262 281 97 296 274 252 248 211 200 205 212 140 115 131 141 139 153 158 144 140 110
272 261 344 225 188 174 174 215 27 304 184 274 289 222 147 186 181 166 177 173 231 176 257 235 251 177 180 255 241 242 223 185 150 120 101 98 133 158 161 144 123 132 121 120
236 232 252 225 188 197 245 249 266 157 232 256 272 251 198 174 204 201 198 187 181 217 237 210 206 174 216 254 242 234 193 159 156 168 152 162 147 130 140 132 136 155 162 137
187 217 162 158 157 176 227 231 204 197 224 248 190 233 243 169 227 96 196 244 214 165 229 222 158 208 221 232 211 210 188 180 173 159 152 141 144 143 146 144 155 161 146 133
173 147 161 133 166 153 141 20 198 178 233 232 232 172 205 182 167 222 186 209 244 233 230 156 225 250 238 245 220 218 185 170 158 142 169 165 161 157 157 160 157 136 118 113
167 165 114 110 144 123 213 236 213 175 231 205 214 178 155 235 162 200 227 219 248 266 248 171 252 262 237 225 228 195 179 171 182 169 164 158 155 152 151 142 128 125 121 111
173 136 116 142 175 197 213 201 190 219 230 179 160 195 124 158 151 145 201 248 9 253 141 203 267 252 253 219 231 186 165 159 157 158 154 153 146 146 136 136 134 131 125 118
127 102 134 174 171 217 214 187 199 210 189 168 156 135 126 107 183 144 180 185 230 328 231 232 232 265 198 246 165 133 144 139 144 133 128 123 119 131 133 126 135 133 127 124
161 160 208 202 199 214 203 207 175 198 124 144 135 108 146 149 165 161 188 218 128 246 245 242 244 252 177 164 152 139 148 137 129 129 127 124 125 121 135 138 140 137 133 128
194 191 222 217 224 194 173 152 106 132 138 142 93 66 128 168 187 205 140 180 251 216 231 226 271 211 158 160 158 146 140 134 132 132 132 133 136 134 129 136 135 133 135 132
222 221 218 250 184 172 155 157 129 166 152 77 86 148 145 233 186 167 213 172 219 247 227 259 8 158 148 151 143 131 131 132 132 131 135 137 139 140 139 138 138 140 143 139
221 195 202 200 138 207 170 146 172 161 152 188 159 189 210 113 196 222 189 205 225 233 302 282 248 179 169 152 131 131 129 128 133 132 138 140 144 143 142 135 151 148 146 148